Tracking 29892 objects as of 21-Nov-2024
HD Live streaming from Space Station
objects crossing your sky now

NOAA 16 DEB

Track NOAA 16 DEB now!
10-day predictions


NORAD ID: 42351
Int'l Code: 2000-055QT
Perigee: 718.7 km
Apogee: 777.2 km
Inclination: 98.7 °
Period: 99.6 minutes
Semi major axis: 7118 km
RCS: Unknown
Launch date: September 21, 2000
Source: United States (US)
Launch site: AIR FORCE WESTERN TEST RANGE (AFWTR)

Note: This is SATELLITE DEBRIS
Your satellite tracking list
Your tracking list is empty




NASA's NSSDC Master Catalog

Two Line Element Set (TLE):
1 42351U 00055QT  24322.55394684  .00013003  00000-0  36676-2 0  9999
2 42351  98.6777  67.2150 0041072 257.8540 101.8048 14.45361329449600
Source of the keplerian elements: AFSPC